This demonstration page uses our WeatherBlox Daily Observations layout. Learn more.

Left ArrowRight Arrow

39.92423, -83.80882

Hourly Observations for June 17, 2018

Temp ( °F °C ) Dew Point ( °F °C ) Humidity (%) Winds ( mph kmh ) Pressure ( in mb ) Visibility ( mi km ) Precip ( " mm )
12:56 am 00:56 Clear 71 21.7 67 19.4 87 87 N N/A 30.04 1017 10 16 N/A
1:56 am 01:56 Clear 72 22.2 65 18.3 79 79 SW 8 13 30.03 1017 10 16 N/A
2:56 am 02:56 Clear 73 22.8 68 20 84 84 SW 7 11 30.02 1017 10 16 N/A
3:56 am 03:56 Clear 72 22.2 69 20.6 91 91 SW 6 9 30.03 1017 10 16 N/A
4:56 am 04:56 Clear 70 21.1 68 20 93 93 W 3 6 30.05 1018 10 16 N/A
5:56 am 05:56 Clear 70 21.1 68 20 93 93 WSW 5 7 30.08 1019 10 16 N/A
6:56 am 06:56 Sunny 71 21.7 69 20.6 94 94 N N/A 30.08 1019 10 16 N/A
7:56 am 07:56 Sunny 75 23.9 71 21.7 88 88 WSW 6 9 30.09 1019 10 16 N/A
8:56 am 08:56 Sunny 81 27.2 73 22.8 77 77 WNW 9 15 30.11 1020 10 16 N/A
9:56 am 09:56 Sunny 83 28.3 73 22.8 72 72 NW 6 9 30.12 1020 10 16 N/A
10:56 am 10:56 Sunny 86 30 74 23.3 67 67 W 8 13 30.11 1020 10 16 N/A
11:56 am 11:56 Sunny 88 31.1 73 22.8 61 61 undefined N/A 30.11 1020 10 16 N/A
12:56 pm 12:56 Sunny 89 31.7 71 21.7 55 55 undefined N/A 30.10 1019 10 16 N/A
1:56 pm 13:56 Sunny 90 32.2 72 22.2 56 56 NW 6 9 30.09 1019 10 16 N/A
2:56 pm 14:56 Sunny 88 31.1 72 22.2 59 59 S 5 7 30.08 1019 10 16 N/A
3:56 pm 15:56 Sunny 90 32.2 71 21.7 54 54 S 5 7 30.07 1018 10 16 N/A
4:56 pm 16:56 Sunny 91 32.8 72 22.2 54 54 S 8 13 30.06 1018 10 16 N/A
5:56 pm 17:56 Sunny 90 32.2 72 22.2 56 56 VRB 5 7 30.05 1018 10 16 N/A
6:56 pm 18:56 Sunny 89 31.7 73 22.8 59 59 SW 7 11 30.04 1017 10 16 N/A
7:56 pm 19:56 Sunny 87 30.6 72 22.2 61 61 SSW 5 7 30.04 1017 10 16 N/A
8:56 pm 20:56 Sunny 84 28.9 73 22.8 70 70 S 5 7 30.03 1017 10 16 N/A
9:56 pm 21:56 Clear 80 26.7 73 22.8 79 79 SSW 5 7 30.04 1017 10 16 N/A
10:56 pm 22:56 Clear 78 25.6 73 22.8 85 85 SW 5 7 30.06 1018 10 16 N/A
11:56 pm 23:56 Clear 77 25 73 22.8 88 88 SSW 5 7 30.06 1018 10 16 N/A

Powered by AerisWeather